This is the latest recevied weather packets stored in our database for station/object N5MDT. If no packets are shown the sender has not sent any weather packets the latest 1 day(s).
| Time | Temp. | Humidity | Pressure | Rain* | Wind** | Luminosity | Snow |
|---|---|---|---|---|---|---|---|
| 1778019512 | 31.11° C | 66% | 1007.4 hPa | 0 mm | 0 m/s | - | - |
| 1778018912 | 31.11° C | 66% | 1007.6 hPa | 0 mm | 0.89 m/s, 189° | - | - |
| 1778018311 | 31.11° C | 67% | 1007.6 hPa | 0 mm | 0.89 m/s, 241° | - | - |
| 1778017711 | 31.11° C | 66% | 1007.6 hPa | 0 mm | 0.45 m/s, 167° | - | - |
| 1778017111 | 31.11° C | 67% | 1007.8 hPa | 0 mm | 1.34 m/s, 153° | - | - |
| 1778016511 | 31.11° C | 66% | 1008 hPa | 0 mm | 0.89 m/s, 248° | - | - |
| 1778015911 | 31.11° C | 67% | 1008.1 hPa | 0 mm | 0.89 m/s, 123° | - | - |
| 1778015311 | 30.56° C | 68% | 1008.2 hPa | 0 mm | 0 m/s | - | - |
| 1778014711 | 30.56° C | 69% | 1008.3 hPa | 0 mm | 1.79 m/s, 169° | - | - |
| 1778014111 | 30.56° C | 70% | 1008.4 hPa | 0 mm | 2.24 m/s, 134° | - | - |
| 1778013511 | 30° C | 71% | 1008.6 hPa | 0 mm | 0 m/s | - | - |
| 1778012911 | 29.44° C | 71% | 1008.7 hPa | 0 mm | 0 m/s | - | - |
| 1778012311 | 29.44° C | 70% | 1008.9 hPa | 0 mm | 0 m/s | - | - |
| 1778011711 | 29.44° C | 70% | 1009 hPa | 0 mm | 0.89 m/s, 243° | - | - |
| 1778011111 | 29.44° C | 71% | 1009.2 hPa | 0 mm | 1.34 m/s, 246° | - | - |
| 1778010511 | 29.44° C | 72% | 1009.3 hPa | 0 mm | 0.45 m/s, 345° | - | - |
| 1778009911 | 28.89° C | 73% | 1009.3 hPa | 0 mm | 0.89 m/s, 126° | - | - |
| 1778009311 | 28.89° C | 73% | 1009.4 hPa | 0 mm | 1.34 m/s, 240° | - | - |
| 1778008711 | 28.89° C | 73% | 1009.4 hPa | 0 mm | 0.89 m/s, 159° | - | - |
| 1778008110 | 28.33° C | 74% | 1009.5 hPa | 0 mm | 0 m/s | - | - |
| 1778007510 | 28.33° C | 74% | 1009.5 hPa | 0 mm | 0 m/s | - | - |
| 1778006910 | 28.33° C | 76% | 1009.7 hPa | 0 mm | 0.45 m/s, 296° | - | - |
| 1778006310 | 27.78° C | 76% | 1009.8 hPa | 0 mm | 0.45 m/s, 238° | - | - |
| 1778005710 | 27.78° C | 76% | 1010 hPa | 0 mm | 0.45 m/s, 108° | - | - |
| 1778005110 | 27.78° C | 76% | 1009.8 hPa | 0 mm | 0.45 m/s, 258° | - | - |
* Rain latest hour (hover to see other rain measurements)
** Current wind speed in m/s (hover to see current wind gust speed)